NOAA 16 DEB, 41252

Orbit data source: Space-Track

NOAA 16 DEB, 41252 is space debris in SSO originally from a launch on Thu, 21 Sep 2000 UTC launched from the Air Force Western Test Range (AFWTR). Debris objects in space refer to the collection of defunct objects orbiting the Earth. Examples of debris include non-operational satellites, rocket bodies, and fragments generated from explosions, collisions, or faulty payload assembly.

Loading next visibility...
Identifier
41252, 2000-055FC
Orbit
SSO
Country
Flag of USUS
Related business
Manufacturer
Unknown
Mission
Spacecraft
Bus & Motor
Unknown
Mass
Unknown
Launch date (UTC)
2000-09-21 (26 years ago)
Launch vehicle
Unknown
Launch site
Air Force Western Test Range (AFWTR)
Object type
Payload
Rocket body
Debris
Shape & HBR
Unknown shape, 0.1 m
Radar Cross Section
Medium (>0.1 m² and <1 m²)

Expand to show TLE details & history
Last TLE update: 23 hours ago

TLE from 23 hours ago
0 NOAA 16 DEB
1 41252U 00055FC  26255.02063266  .00002624  00000-0  12161-2 0  9996
2 41252  98.9228 322.9065 0050233  97.1179 263.5713 14.20975787552120
Epoch: 2026-09-12T00:29Z
TLE epoch observation values (Epoch: 2026-09-12T00:29:42.661Z)
Latitude
-0.00004°
Longitude
-35.55688°
Altitude
829.194 km
Speed
7.436 km/s
True Right ascension
21h 31m 37s
True Declination
0° 00' 00"
Sunlit
Object was in full shadow at epoch
Visualization orbit readout
Latitude
Unknown
Longitude
Unknown
Altitude
Unknown
Speed
Unknown
Apparent Right ascension
Unknown
Apparent Declination
Unknown
Sunlit
N/A
Visualization observer readout
Local Sidereal Time
15:41:05
Azimuth
Unknown
Elevation
Unknown
Doppler factor
Unknown
Orbital elements
Apogee altitude
855.377 km
Perigee altitude
783.068 km
Semi-major axis
7,197.359 km
Eccentricity
0.00502
Inclination
98.9228°
RAAN
322.9065°
Arg. of periapsis
97.1179°
True anomaly
262.9997°
Mean anomaly
263.5713°
Eccentric anomaly
263.28546°
Mean motion
3.55454 °/min
Orbital period
101.28 mins
BSTAR
0.0012161
Loading maneuver chart data...
Computing Atmospheric mass density...
Loading historical data...
Loading historical data...
Loading historical data...
Loading historical data...
Loading historical data...
Loading historical data...
Loading historical data...

Documentation

Showing up to 5 results
|